Regional Weather Roundup
Issued by NWS Grand Forks, ND

Home | Current Version | Previous Version | Graphics & Text | Print | Product List | Glossary On
Versions: 1 2 3 4 5 6 7 8 9 10 11 12 13 14 15 16 17 18 19 20 21 22 23 24 25 26 27 28 29 30 31 32 33 34 35 36 37 38 39 40 41 42 43 44 45 46 47 48 49 50
000
ASUS43 KFGF 271310
RWRFGF
PRAIRIE TO PINES  WEATHER ROUNDUP
NATIONAL WEATHER SERVICE EASTERN NORTH DAKOTA/GRAND FORKS ND
800 AM CDT WED MAY 27 2015

 **SATELLITE DATA USED TO AUGMENT SKY COVER AT AUTOMATED STATIONS**
 *****  WEATHER ACROSS EASTERN NORTH DAKOTA  *****

CITY           SKY/WX    TMP DP  RH WIND       PRES   REMARKS
GRAND FORKS    PTSUNNY   56  45  66 N14       29.92R
GRAND FRKS AFB MOSUNNY   56  45  66 N14       29.93R
GRAND FRKS NWS   N/A     54 N/A N/A N20         N/A
DEVILS LAKE    SUNNY     57  48  72 NE9       29.94S
FARGO          SUNNY     61  51  70 NW7       29.90R
WAHPETON ARPT  SUNNY     59  50  72 W8        29.91R
$$

 ***** WEATHER ACROSS CENTRAL AND WESTERN NORTH DAKOTA  *****

CITY           SKY/WX    TMP DP  RH WIND       PRES   REMARKS
BISMARCK       SUNNY     59  50  72 W3        29.96S
MINOT          MOSUNNY   59  48  67 E5        29.95R
JAMESTOWN      SUNNY     62  51  67 N6        29.95R
MINOT AFB      MOSUNNY   62  56  83 CALM      29.94R
GARRISON         N/A     60  52  74 CALM      29.94S
WILLISTON      SUNNY     59  47  64 CALM      29.93S
DICKINSON      MOSUNNY   57  47  69 SE5       29.95R
HETTINGER      MOSUNNY   56  47  71 CALM      29.98S
$$

 *****  OTHER AIRPORT OBSERVATIONS IN OUR AREA  *****

CITY           SKY/WX    TMP DP  RH WIND       PRES   REMARKS
WALHALLA         N/A     52  46  82 MISG      29.97R
GRAFTON AIRPOR FAIR      55  45  67 N16       29.94R
VALLEY CITY AR FAIR      61  50  67 NW8       29.94R
CANDO          FAIR      52  45  76 NE14      29.97R
CAVALIER APRT  FAIR      52  45  76 N14       29.95R
GWINNER        NOT AVBL
ROLLA          FAIR      50  41  71 NE13      29.99S
 ***** THE ABOVE OBSERVATIONS ARE NON NWS ARE NOT QUALITY
       CONTROLLED AND MAY MIS-REPORT RAIN FOR SNOW...
$$

  *****  WEATHER ACROSS NORTHERN MINNESOTA  *****

CITY           SKY/WX    TMP DP  RH WIND       PRES   REMARKS
FLAG ISLAND    SUNNY     54  46  76 NW15      29.86R
WARROAD        MOSUNNY   54  46  76 W7        29.90R
ROSEAU         MOSUNNY   55  46  71 NW10      29.90R
HALLOCK        MOSUNNY   54  45  71 N14       29.93R
THF RVR FALLS  MOSUNNY   57  46  67 NW9       29.90R
BAUDETTE       MOSUNNY   58  49  72 NW12      29.85R
WASKISH        SUNNY     61  52  72 CALM      29.86R
CROOKSTON      MOSUNNY   57  48  72 N16       29.92R
STEPHEN NDAWN    N/A     54  45  71 N13         N/A
GREENBUSH NDAW   N/A     54  48  82 NW8         N/A
$$
  *****  WEATHER ACROSS CENTRAL AND WEST MINNESOTA  *****

CITY           SKY/WX    TMP DP  RH WIND       PRES   REMARKS
FOSSTON        SUNNY     57  52  82 CALM      29.89S
BEMIDJI        MOSUNNY   58  54  86 NW8       29.87R
PARK RAPIDS    MOSUNNY   61  54  77 NW5       29.87R
ELBOW LAKE     FAIR      58  53  85 NW9       29.91R
WADENA         SUNNY     57  54  88 W6        29.88R
DETROIT LAKES  SUNNY     59  52  77 NW6       29.90R
MOORHEAD       SUNNY     61  52  72 NW7       29.91R
FERGUS FALLS   SUNNY     57  54  88 NW6       29.91R
MORRIS MN      SUNNY     61  54  77 NW10      29.90R
STAPLES        SUNNY     57  55  94 W3        29.88R
$$
  *****  WEATHER ELSEWHERE ACROSS MINNESOTA  *****

CITY           SKY/WX    TMP DP  RH WIND       PRES   REMARKS
DULUTH         PTSUNNY   64  53  67 NW8       29.83R
INTRNTL FALLS  SUNNY     59  52  77 NW7       29.83R
ELY            NOT AVBL
CLOQUET        PTSUNNY   63  54  72 W8        29.84R
WHEATON        SUNNY     63  52  67 W7        29.94R
BRAINERD       SUNNY     58  55  90 SW6       29.87R
HIBBING        MOSUNNY   56  52  86 CALM      29.83R
ALEXANDRIA     SUNNY     60  53  77 W7        29.91R
SAINT CLOUD    MOSUNNY   58  56  93 S6        29.89R
MINNEAPOLIS    PTSUNNY   59  57  93 SW5       29.92R
$$

  *****  WEATHER ACROSS SOUTH DAKOTA  *****

CITY           SKY/WX    TMP DP  RH WIND       PRES   REMARKS
SIOUX FALLS    SUNNY     61  53  75 CALM      29.99R
BROOKINGS      SUNNY     59  54  82 NW3       29.98S
WATERTOWN      SUNNY     62  51  67 NW6       29.97R
HURON          SUNNY     59  53  80 CALM      29.98R
SISSETON         N/A     66  51  58 NW8       29.92R
ABERDEEN       SUNNY     62  53  72 W5        29.96R
MITCHELL       SUNNY     60  52  74 W5        29.99R
PIERRE         PTSUNNY   57  50  77 SW6       29.99R
MOBRIDGE       SUNNY     59  55  87 SE5       29.95S
RAPID CITY     CLOUDY    55  52  89 SE5       29.99S
$$

  *****  SOME WEATHER IN NEARBY STATES *****

CITY           SKY/WX    TMP DP  RH WIND       PRES   REMARKS
GLASGOW MT     PTSUNNY   58  53  84 S6        29.94R
GREAT FALLS MT CLOUDY    50  48  93 SW9       30.02S
CHEYENNE WY    PTSUNNY   50  42  74 W10       30.09S
SCOTTSBLUFF NE MOSUNNY   53  51  93 SE9       30.03S
OMAHA NE       SUNNY     60  56  86 S5        30.04R
DES MOINES IA  MOSUNNY   62  55  77 W6        30.00S
DAVENPORT IA   CLOUDY    62  59  90 SW12      29.98R
CHICAGO IL     PTSUNNY   66  59  78 W20       29.93R
EAU CLAIRE WI  CLOUDY    58  55  90 SW8       29.91R
LA CROSSE WI   PTSUNNY   62  57  83 NW6       29.94R
$$

  *****  SOME NATIONAL WEATHER *****

CITY           SKY/WX    TMP DP  RH WIND       PRES   REMARKS
LA GUARDIA NY  CLOUDY    72  62  71 S8        30.17S
RALEIGH NC     CLOUDY    73  68  84 SW13      30.28R
ATLANTA GA     PTSUNNY   71  65  81 CALM      30.25S
NEW ORLEANS LA PTSUNNY   79  74  84 SE6       30.12R
OKLAHOMA CITY  MOSUNNY   65  63  93 S7        30.06R
ALBUQUERQUE NM PTSUNNY   58  44  60 N9        30.15S
SALT LAKE CITY MOCLDY    53  47  79 SE8       30.06R
LOS ANGELES CA CLOUDY    59  54  83 E3        29.98S
BOISE ID       MOCLDY    55  50  83 SE7       29.99F
SEATTLE WA     MOCLDY    55  53  93 CALM      30.06S
$$

*** WEATHER ACROSS MANITOBA...SASKATCHEWAN AND ONTARIO ***
                ***ONTARIO***

CITY           SKY/WX    TMP DP  RH WIND       PRES   REMARKS
GERALDTON      NOT AVBL
THUNDER BAY    PTSUNNY   63  55  77 SW7       29.72S
SIOUX LOOKOUT  SUNNY     54  45  71 N7        29.83R
TORONTO        PTSUNNY   73  63  68 SW16G23   29.97S
BIG TROUT LK   CLOUDY    30  28  93 NE7       30.01R WCI  23
PICKLE LAKE    CLOUDY    41  36  81 N10G18    29.88R
DRYDEN         SUNNY     57  48  72 NE8       29.84R
KENORA         NOT AVBL
$$
                *** MANITOBA***

CITY           SKY/WX    TMP DP  RH WIND       PRES   REMARKS
BRANDON        PTSUNNY   46  41  81 NE12      30.03R
DAUPHIN        MOSUNNY   46  37  71 NE16      30.08R
ISLAND LAKE    NOT AVBL
PILOT MOUND      N/A     48  43  81 N13         N/A
THE PAS        MOSUNNY   45  37  76 SE8       30.12R
THOMPSON       SUNNY     41  28  60 W2        30.11R
WINNIPEG       MOSUNNY   50  41  71 N16       29.98R
LYNN LAKE      SUNNY     41  28  60 NE6       30.11R
CHURCHILL      CLOUDY    30  25  80 N16G26    30.09R WCI  19
GILLAM         PTSUNNY   36  28  75 W12       30.09R
$$
                ***SASKATCHEWAN***

CITY           SKY/WX    TMP DP  RH WIND       PRES   REMARKS
ESTEVAN        MOSUNNY   54  50  87 E15       29.95R
KINDERSLEY     PTSUNNY   52  46  82 E14G21    29.99R
LLOYDMINSTER   MOSUNNY   48  39  71 SE13      30.02S
PRINCE ALBERT  MOSUNNY   45  41  87 E6        30.09R
REGINA         PTSUNNY   54  46  76 E12       29.99R
YORKTON        CLOUDY    46  41  81 NE7       30.05R
N. BATTLEFORD  SUNNY     48  43  81 E12       30.06S
LA RONGE       MOSUNNY   45  41  87 SE6       30.09S
SASKATOON      PTSUNNY   46  41  81 E7        30.06R
SWIFT CURRENT  MOSUNNY   54  48  82 E15       29.95S
$$
NOTE: THESE ARE AUTOMATED STATIONS WITH LIMITED QUALITY CONTROL
      "FAIR" INDICATES FEW OR NO CLOUDS BELOW 12,000 FEET WITH NO
      SIGNIFICANT WEATHER AND/OR OBSTRUCTIONS TO VISIBILITY.
      SKY/WX - SKY CONDITION AND SIGNIFICANT WEATHER.
      TMP - AIR TEMPERATURE.    DP   - DEWPOINT TEMPERATURE.
      RH  - RELATIVE HUMIDITY.  PRES - PRESSURE.
      HX  - HEAT INDEX.         WCI  - WIND CHILL INDEX.
$



USA.gov is the U.S. government's official web portal to all federal, state and local government web resources and services.